Volver al catálogo

STARLINK-31392

ActivoComunicacionesVLEO
NORAD 59530·PAYLOAD·🇺🇸 United States

Lanzado Apr 17, 2024 desde Cape Canaveral Space Force Station

Loading…

Próximos Pases (próximas 24 horas)

TLE

ActualizadoSource: CelesTrak SupGP

Época: Sep 15, 2026, 02:49 UTC

1 59530C 24073V   26258.11784722  .00045632  00000+0  16524-2 0  2580
2 59530  43.0021 328.2723 0001327 264.9364 167.2769 15.27564072    16

Sigue STARLINK-31392 en tiempo real con AllMySat

Download on the App Store